Bemidji, MN

2:40 PM CST on February 20, 2017 (GMT -0600)
Bemidji-Beltrami County

Weather History for KBJI - January, 2014

Change the Weather History Date:

Friday, January 24, 2014

  Actual Average Record
Temperature  
Mean Temperature 14 °F -  
Max Temperature 27 °F 18 °F 50 °F (1981)
Min Temperature 1 °F -1 °F -46 °F (1966)
Degree Days  
Heating Degree Days 50    
Moisture  
Dew Point 14 °F    
Average Humidity 82    
Maximum Humidity 95    
Minimum Humidity 52    
Precipitation  
Precipitation 0.00 in - - ()
Sea Level Pressure  
Sea Level Pressure 29.56 in    
Wind  
Wind Speed 13 mph (West)    
Max Wind Speed 26 mph    
Max Gust Speed 38 mph    
Visibility 6 miles    
Events Snow    
Averages and records for this station are not official NWS values.
T = Trace of Precipitation, MM = Missing Value Source: NWS Daily Summary

Daily Weather History Graph

Daily Weather History Graph

Search for Another Location

Airport or City:

Trip Planner

Search our weather history database for the weather conditions in past years. The results will help you decide how hot, cold, wet, or windy it might be!

Date:

Astronomy

Jan. 24, 2014 Rise Set
Actual Time 7:55 AM CST 5:08 PM CST
Civil Twilight 7:21 AM CST 5:42 PM CST
Nautical Twilight 6:44 AM CST 6:20 PM CST
Astronomical Twilight 6:07 AM CST 6:56 PM CST
Moon 1:17 AM CST (1/24) 11:32 AM CST (1/24)
Length of Visible Light 10h 21m
Length of Day
9h 13m
Last Quarter, 44% of the Moon is Illuminated
Jan 24
Last Quarter
Jan 30
New
Feb 6
First Quarter
Feb 14
Full
Feb 22
Last Quarter

Hourly Weather History & Observations

Time (CST) Temp. Windchill Dew Point Humidity Pressure Visibility Wind Dir Wind Speed Gust Speed Precip Events Conditions
12:10 AM 8.2 °F -4.1 °F 2.1 °F 76% 29.76 in 1.2 mi SSW 8.1 mph - N/A Snow Snow
12:30 AM 8.4 °F -3.9 °F 5.2 °F 87% 29.73 in 0.5 mi SSW 8.1 mph - N/A Snow Heavy Snow
12:49 AM 9.7 °F -1.3 °F 7.0 °F 89% 29.72 in 0.5 mi SSW 6.9 mph - N/A Snow Heavy Snow
1:10 AM 12.2 °F 0.7 °F 9.0 °F 87% 29.69 in 2.0 mi SSW 8.1 mph - N/A Snow Light Snow
1:30 AM 14.7 °F 0.7 °F 12.0 °F 89% 29.68 in 1.8 mi WSW 12.7 mph 20.7 mph N/A Snow Light Snow
1:50 AM 15.8 °F 2.1 °F 12.7 °F 88% 29.67 in 3.0 mi WSW 12.7 mph 20.7 mph N/A Snow Light Snow
2:10 AM 16.7 °F 2.0 °F 13.1 °F 86% 29.65 in 5.0 mi WSW 15.0 mph 20.7 mph N/A Snow Light Snow
2:30 AM 17.6 °F 3.7 °F 14.0 °F 86% 29.65 in 2.5 mi WSW 13.8 mph 19.6 mph N/A Snow Light Snow
2:50 AM 18.5 °F 4.3 °F 14.9 °F 86% 29.64 in 10.0 mi WSW 15.0 mph - N/A Snow Light Snow
3:10 AM 18.9 °F 5.9 °F 15.3 °F 86% 29.63 in 10.0 mi WSW 12.7 mph 17.3 mph N/A   Overcast
3:30 AM 19.2 °F 7.0 °F 15.3 °F 85% 29.63 in 7.0 mi WSW 11.5 mph 20.7 mph N/A   Overcast
3:50 AM 19.4 °F 6.0 °F 15.6 °F 85% 29.63 in 7.0 mi West 13.8 mph - N/A   Overcast
4:10 AM 19.4 °F 5.5 °F 15.8 °F 86% 29.63 in 10.0 mi West 15.0 mph - N/A   Overcast
4:30 AM 19.4 °F 6.6 °F 16.2 °F 87% 29.63 in 10.0 mi West 12.7 mph - N/A   Overcast
4:50 AM 19.6 °F 6.8 °F 16.3 °F 87% 29.63 in 10.0 mi West 12.7 mph - N/A   Overcast
5:10 AM 19.8 °F 6.5 °F 16.5 °F 87% 29.63 in 10.0 mi West 13.8 mph - N/A   Overcast
5:30 AM 20.1 °F 7.5 °F 17.1 °F 88% 29.62 in 10.0 mi WSW 12.7 mph - N/A   Overcast
5:50 AM 20.1 °F 6.9 °F 17.4 °F 89% 29.61 in 10.0 mi West 13.8 mph - N/A   Overcast
6:10 AM 20.3 °F 7.7 °F 18.0 °F 91% 29.61 in 10.0 mi West 12.7 mph - N/A   Overcast
6:30 AM 21.0 °F 10.6 °F 18.5 °F 90% 29.59 in 10.0 mi West 9.2 mph - N/A   Overcast
6:50 AM 21.2 °F 12.6 °F 19.0 °F 91% 29.57 in 10.0 mi WSW 6.9 mph - N/A   Overcast
7:10 AM 21.2 °F 10.1 °F 19.0 °F 91% 29.58 in 10.0 mi West 10.4 mph - N/A   Overcast
7:30 AM 22.1 °F 10.6 °F 19.6 °F 90% 29.57 in 10.0 mi West 11.5 mph - N/A   Overcast
7:50 AM 22.6 °F 10.7 °F 20.1 °F 90% 29.57 in 10.0 mi West 12.7 mph - N/A   Overcast
8:10 AM 23.2 °F 10.8 °F 20.7 °F 90% 29.56 in 7.0 mi West 13.8 mph 20.7 mph N/A   Overcast
8:30 AM 23.0 °F 10.6 °F 21.2 °F 93% 29.56 in 2.5 mi West 13.8 mph - N/A   Overcast
8:50 AM 23.4 °F 12.2 °F 21.9 °F 94% 29.56 in 2.0 mi West 11.5 mph - N/A   Overcast
9:10 AM 23.7 °F 12.6 °F 22.1 °F 94% 29.56 in 2.0 mi West 11.5 mph - N/A   Overcast
9:30 AM 23.9 °F 12.9 °F 22.5 °F 94% 29.55 in 2.5 mi West 11.5 mph - N/A   Overcast
9:50 AM 23.9 °F 11.2 °F 22.6 °F 95% 29.54 in 2.0 mi West 15.0 mph 18.4 mph N/A   Overcast
10:10 AM 24.1 °F 13.1 °F 22.6 °F 94% 29.54 in 2.5 mi West 11.5 mph 20.7 mph N/A   Overcast
10:30 AM 23.9 °F 11.7 °F 22.5 °F 94% 29.53 in 2.5 mi West 13.8 mph - N/A   Overcast
10:50 AM 23.7 °F 14.0 °F 22.1 °F 94% 29.50 in 3.0 mi West 9.2 mph - N/A   Overcast
11:10 AM 23.7 °F 12.6 °F 21.9 °F 93% 29.51 in 5.0 mi West 11.5 mph - N/A   Overcast
11:30 AM 23.7 °F 13.3 °F 21.9 °F 93% 29.50 in 5.0 mi West 10.4 mph 18.4 mph N/A   Overcast
11:50 AM 23.7 °F 11.0 °F 21.9 °F 93% 29.50 in 5.0 mi WNW 15.0 mph 19.6 mph N/A   Overcast
12:10 PM 23.7 °F 11.0 °F 21.6 °F 91% 29.49 in 5.0 mi West 15.0 mph 19.6 mph N/A   Overcast
12:30 PM 23.9 °F 11.7 °F 21.2 °F 89% 29.49 in 7.0 mi West 13.8 mph - N/A Snow Light Snow
12:50 PM 23.7 °F 11.0 °F 21.2 °F 90% 29.47 in 3.0 mi West 15.0 mph 18.4 mph N/A Snow Light Snow
1:10 PM 23.7 °F 12.6 °F 21.0 °F 89% 29.46 in 1.0 mi West 11.5 mph - N/A Snow Light Snow
1:30 PM 23.7 °F 11.5 °F 21.4 °F 91% 29.44 in 1.0 mi West 13.8 mph - N/A Snow Light Snow
1:50 PM 23.9 °F 12.3 °F 21.9 °F 92% 29.43 in 1.0 mi West 12.7 mph - N/A Snow Light Snow
2:10 PM 24.6 °F 12.7 °F 22.1 °F 90% 29.41 in 1.5 mi West 13.8 mph - N/A Snow Light Snow
2:30 PM 24.8 °F 12.4 °F 22.1 °F 89% 29.41 in 3.0 mi West 15.0 mph 19.6 mph N/A Snow Light Snow
2:50 PM 25.2 °F 14.4 °F 22.1 °F 88% 29.41 in 3.0 mi West 11.5 mph - N/A Snow Light Snow
3:10 PM 25.7 °F 13.5 °F 22.1 °F 86% 29.41 in 7.0 mi West 15.0 mph 20.7 mph N/A   Overcast
3:30 PM 26.1 °F 13.6 °F 22.8 °F 88% 29.41 in 7.0 mi West 16.1 mph 20.7 mph N/A   Overcast
3:50 PM 26.2 °F 12.2 °F 23.4 °F 89% 29.42 in 4.0 mi WNW 20.7 mph 27.6 mph N/A Snow Light Snow
4:10 PM 26.4 °F 11.2 °F 23.4 °F 88% 29.43 in 2.5 mi NW 25.3 mph 31.1 mph N/A   Overcast
4:30 PM 26.6 °F 12.7 °F 23.4 °F 88% 29.44 in 7.0 mi NW 20.7 mph 27.6 mph N/A   Overcast
4:50 PM 26.6 °F 12.7 °F 23.5 °F 88% 29.43 in 5.0 mi WNW 20.7 mph 25.3 mph N/A   Overcast
5:10 PM 27.0 °F 13.5 °F 23.7 °F 88% 29.44 in 4.0 mi NW 19.6 mph 28.8 mph N/A Snow Light Snow
5:30 PM 26.8 °F 13.7 °F 23.0 °F 86% 29.45 in 7.0 mi NW 18.4 mph - N/A Snow Light Snow
5:50 PM 26.6 °F 11.7 °F 22.3 °F 84% 29.46 in 5.0 mi NW 24.2 mph 27.6 mph N/A Snow Light Snow
6:10 PM 26.4 °F 12.5 °F 22.5 °F 85% 29.47 in 2.5 mi NW 20.7 mph 38.0 mph N/A Snow Light Snow
6:30 PM 25.0 °F 8.9 °F 19.4 °F 79% 29.48 in 1.5 mi NW 26.5 mph 38.0 mph N/A Snow Light Snow
6:50 PM 23.0 °F 8.0 °F 16.0 °F 74% 29.51 in 4.0 mi NNW 20.7 mph 29.9 mph N/A   Haze
7:10 PM 18.7 °F 2.3 °F 9.5 °F 67% 29.53 in 1.5 mi NW 20.7 mph 32.2 mph N/A Snow Light Snow
7:30 PM 16.0 °F -2.5 °F 3.9 °F 59% 29.54 in 2.5 mi NW 24.2 mph 36.8 mph N/A Snow Light Snow
7:50 PM 14.2 °F -3.2 °F 0.7 °F 55% 29.56 in 5.0 mi NW 19.6 mph 26.5 mph N/A   Haze
8:10 PM 12.2 °F -5.8 °F -0.6 °F 57% 29.56 in 4.0 mi NW 19.6 mph 31.1 mph N/A   Haze
8:30 PM 11.3 °F -7.4 °F -3.3 °F 52% 29.57 in 7.0 mi NW 20.7 mph 26.5 mph N/A   Clear
8:50 PM 10.2 °F -8.9 °F -3.8 °F 53% 29.58 in 10.0 mi NW 20.7 mph 27.6 mph N/A   Clear
9:10 PM 9.3 °F -9.6 °F -4.0 °F 55% 29.59 in 10.0 mi NW 19.6 mph - N/A   Clear
9:30 PM 8.6 °F -10.0 °F -3.6 °F 58% 29.60 in 7.0 mi NW 18.4 mph 31.1 mph N/A   Clear
9:50 PM 7.2 °F -11.9 °F -3.8 °F 61% 29.61 in 10.0 mi NW 18.4 mph 25.3 mph N/A   Clear
10:10 PM 5.9 °F -15.0 °F -5.4 °F 60% 29.62 in 7.0 mi NW 21.9 mph 27.6 mph N/A   Clear
10:30 PM 5.0 °F -16.7 °F -5.4 °F 62% 29.64 in 3.0 mi NNW 23.0 mph 32.2 mph N/A   Haze
10:50 PM 4.1 °F -16.4 °F -6.9 °F 60% 29.64 in 10.0 mi NW 19.6 mph 26.5 mph N/A   Clear
11:10 PM 3.2 °F -16.5 °F -7.4 °F 61% 29.66 in 10.0 mi NW 17.3 mph 23.0 mph N/A   Clear
11:30 PM 2.5 °F -20.0 °F -7.6 °F 63% 29.67 in 4.0 mi NW 23.0 mph 29.9 mph N/A   Haze
11:50 PM 1.8 °F -17.8 °F -10.3 °F 57% 29.67 in 10.0 mi NW 16.1 mph 24.2 mph N/A   Clear